Lid_Strength_Index
2 2 2 2 2 3 3 3 3 3 3 2 2 3 3 3 2 3 3 2 2 2 2 1 1 0 3 7 6 2 -3 -2 0 2 5 7 9 11 14 12 12 14 12 11 11 11 11
2 1 2 2 2 3 3 3 3 3 3 3 2 2 2 2 2 3 3 3 2 2 2 1 1 1 5 9 3 2 1 1 1 3 5 6 9 9 11 12 13 12 12 12 12 12 11
2 2 2 2 2 2 2 3 3 3 3 3 3 2 2 2 3 3 3 2 2 2 1 1 0 1 6 10 3 3 2 4 4 4 6 7 7 9 10 12 11 11 13 12 11 11 11
2 2 2 2 2 2 2 2 2 3 3 3 3 3 2 2 3 3 3 3 3 2 2 1 -0 3 9 3 3 5 6 5 6 4 6 6 8 10 11 11 11 13 14 16 12 10 10
2 2 2 2 2 2 2 3 3 3 3 3 3 3 3 3 3 3 3 3 3 2 1 1 4 6 7 1 5 5 6 7 7 6 6 5 8 10 11 14 15 15 17 16 13 10 11
2 2 2 2 2 2 2 2 2 3 3 3 3 3 3 3 3 3 3 3 3 3 2 2 3 7 6 6 5 5 6 6 7 8 8 9 11 12 14 15 18 16 16 15 15 12 11
2 2 2 2 2 2 2 2 3 3 3 3 3 3 4 3 3 3 5 8 10 10 6 9 6 6 4 4 5 6 5 6 7 9 13 11 14 16 14 13 12 13 14 15 13 11 13
3 3 3 3 3 3 2 3 3 3 3 3 3 3 4 3 3 3 7 8 8 8 11 7 7 6 4 4 7 7 5 9 10 13 12 13 16 12 11 12 12 13 15 15 13 11 12
3 2 3 3 3 3 3 2 2 3 3 3 3 3 4 4 4 7 9 7 5 8 12 9 7 7 7 6 8 8 6 8 11 13 13 15 12 10 11 12 13 14 14 14 14 12 12
2 2 3 3 3 3 3 2 2 3 3 3 3 3 4 4 7 9 8 6 7 8 14 10 10 8 7 8 9 6 6 8 11 13 13 13 11 11 12 13 12 15 11 11 13 14 18
3 2 2 3 3 3 3 3 3 3 3 3 3 3 4 4 8 8 6 6 7 7 20 9 10 7 8 10 9 8 6 9 11 12 12 13 12 13 13 11 10 13 10 12 12 15 17
3 3 2 2 2 3 3 3 3 4 4 4 3 3 3 5 8 6 6 7 7 14 19 12 10 10 11 10 9 8 9 8 9 12 12 12 10 11 10 9 9 9 12 13 14 16 20
4 3 3 2 3 3 3 3 4 4 4 3 3 3 4 4 7 6 6 8 14 18 10 12 12 11 11 11 10 10 10 12 14 16 15 12 11 8 7 11 10 11 15 20 20 20 19
5 4 3 3 3 3 3 3 4 4 4 4 4 4 4 4 6 5 7 10 17 11 13 10 11 11 12 10 11 10 11 13 10 12 14 15 15 10 8 10 12 13 14 18 21 20 18
5 4 4 4 3 3 3 4 4 4 4 4 4 6 6 4 3 7 9 15 16 13 10 11 11 12 12 10 11 11 12 12 10 11 14 15 14 8 8 8 10 13 15 12 16 15 18
5 5 4 5 4 4 4 4 4 4 4 4 8 7 6 4 6 7 11 12 11 8 9 10 13 11 14 12 12 12 13 9 10 8 9 12 16 10 8 8 9 12 11 16 16 21 22
5 5 5 4 5 5 5 5 5 5 5 5 8 8 5 6 5 9 14 12 9 8 8 10 12 12 12 13 12 13 12 10 8 9 9 11 13 13 10 12 13 13 15 14 14 16 21
5 5 5 4 5 6 6 6 6 6 6 6 10 11 6 6 10 12 13 10 8 9 7 9 10 10 12 12 12 12 12 10 7 7 11 10 13 16 14 9 9 11 13 13 17 18 17
4 5 5 5 6 6 6 6 6 6 6 9 11 11 6 7 15 14 12 10 9 9 9 10 11 10 10 12 15 11 10 7 8 8 10 10 14 17 15 13 11 13 12 12 12 14 17
5 4 4 5 6 6 6 6 6 7 7 9 12 14 12 11 12 13 13 12 11 8 9 9 10 10 11 13 12 12 11 8 7 8 6 8 12 14 17 15 14 14 12 11 12 17 16
4 5 5 5 6 7 7 6 7 7 7 10 13 15 14 17 15 15 13 12 12 12 10 10 11 11 12 15 13 13 11 10 8 7 8 10 15 13 12 11 11 12 13 12 14 13 16
5 4 5 6 6 7 7 7 7 7 7 11 14 15 14 15 14 14 13 13 12 11 11 12 13 11 12 14 13 14 12 12 11 9 10 10 14 13 15 12 12 14 12 11 11 12 13
5 4 5 6 7 7 7 7 7 7 9 13 12 12 14 15 16 16 16 13 12 11 11 10 11 13 13 11 9 9 9 9 9 10 11 12 13 15 17 12 13 16 13 12 12 11 12
6 5 5 6 7 7 8 8 8 7 9 12 12 12 14 16 16 15 13 12 13 12 13 10 10 13 10 8 8 9 9 9 9 9 8 12 12 13 16 14 21 13 10 10 11 11 10
7 6 6 6 7 7 8 8 8 8 8 12 12 13 14 16 15 14 13 13 13 12 13 12 11 9 8 9 12 13 12 12 11 9 10 10 12 15 17 18 15 12 12 12 13 13 9
7 6 6 6 7 8 8 8 8 8 8 12 13 12 14 15 17 13 14 13 15 16 14 12 9 8 9 11 12 14 17 14 15 13 9 9 10 14 16 19 21 15 10 8 9 16 9
7 6 6 7 7 8 8 8 8 8 8 11 13 12 13 15 14 14 16 15 14 15 16 13 10 10 7 11 13 15 16 12 16 16 15 14 13 16 16 17 15 10 9 8 16 14 9
7 7 6 7 7 7 8 8 8 8 8 10 13 12 13 14 13 13 12 14 14 14 14 13 13 12 12 15 13 13 14 13 14 12 13 14 15 16 15 17 19 9 9 13 10 8 9
7 6 6 7 7 8 8 8 8 8 8 8 13 11 11 13 13 12 11 10 10 10 12 13 13 11 10 14 13 12 16 14 13 16 10 15 13 15 14 14 10 8 9 7 6 7 7